Weather History for KVRB - April, 2013

Change the Weather History Date:

Tuesday, April 9, 2013

  Actual Average Record
Temperature  
Mean Temperature 76 °F 70 °F  
Max Temperature 82 °F 80 °F 91 °F (1999)
Min Temperature 69 °F 60 °F 40 °F (2009)
Degree Days  
Heating Degree Days 0 1  
Month to date heating degree days 0 9  
Since 1 July heating degree days 398 449  
Cooling Degree Days 11 6  
Month to date cooling degree days 62 47  
Year to date cooling degree days 359 315  
Growing Degree Days 26 (Base 50)    
Moisture  
Dew Point 64 °F    
Average Humidity 71    
Maximum Humidity 84    
Minimum Humidity 58    
Precipitation  
Precipitation 0.00 in 0.10 in 1.72 in (1944)
Month to date precipitation 0.27 0.91  
Year to date precipitation 3.92 10.20  
Sea Level Pressure  
Sea Level Pressure 30.14 in    
Wind  
Wind Speed 10 mph (East)    
Max Wind Speed 18 mph    
Max Gust Speed 24 mph    
Visibility 10 miles    
Events      
T = Trace of Precipitation, MM = Missing Value Source: NWS Daily Summary

Daily Weather History Graph

Daily Weather History Graph

Search for Another Location

Airport or City:

Trip Planner

Search our weather history database for the weather conditions in past years. The results will help you decide how hot, cold, wet, or windy it might be!

Date:

Astronomy

Apr. 09, 2013 Rise Set
Actual Time 7:03 AM EDT 7:43 PM EDT
Civil Twilight 6:39 AM EDT 8:07 PM EDT
Nautical Twilight 6:11 AM EDT 8:35 PM EDT
Astronomical Twilight 5:43 AM EDT 9:03 PM EDT
Moon 6:22 AM EDT (4/9) 7:17 PM EDT (4/9)
Length of Visible Light 13h 28m
Length of Day
12h 40m
Waning Crescent, 1% of the Moon is Illuminated
Apr 9
Waning Crescent
Apr 10
New
Apr 18
First Quarter
Apr 25
Full
May 2
Last Quarter

Hourly Weather History & Observations

Time (EDT) Temp. Heat Index Dew Point Humidity Pressure Visibility Wind Dir Wind Speed Gust Speed Precip Events Conditions
12:53 AM 70.0 °F - 64.0 °F 81% 30.14 in 10.0 mi ESE 4.6 mph - N/A   Clear
1:53 AM 70.0 °F - 64.9 °F 84% 30.13 in 10.0 mi ESE 5.8 mph - N/A   Partly Cloudy
2:53 AM 71.1 °F - 66.0 °F 84% 30.10 in 10.0 mi ESE 5.8 mph - N/A   Partly Cloudy
3:53 AM 70.0 °F - 64.9 °F 84% 30.08 in 10.0 mi ESE 6.9 mph - N/A   Clear
4:53 AM 71.1 °F - 64.9 °F 81% 30.09 in 10.0 mi ESE 8.1 mph - N/A   Clear
5:53 AM 71.1 °F - 64.9 °F 81% 30.10 in 10.0 mi East 8.1 mph - N/A   Partly Cloudy
6:53 AM 71.1 °F - 64.9 °F 81% 30.12 in 10.0 mi East 6.9 mph - N/A   Clear
7:53 AM 72.0 °F - 66.0 °F 81% 30.14 in 10.0 mi East 9.2 mph - N/A   Scattered Clouds
8:53 AM 73.9 °F - 64.9 °F 73% 30.15 in 10.0 mi ESE 10.4 mph - N/A   Mostly Cloudy
9:53 AM 75.9 °F - 64.9 °F 69% 30.17 in 10.0 mi East 13.8 mph - N/A   Mostly Cloudy
10:53 AM 79.0 °F - 64.9 °F 62% 30.19 in 10.0 mi ESE 13.8 mph 20.7 mph N/A   Mostly Cloudy
11:53 AM 80.1 °F 81.7 °F 64.0 °F 58% 30.19 in 10.0 mi ESE 15.0 mph 20.7 mph N/A   Scattered Clouds
12:53 PM 80.1 °F 81.7 °F 64.0 °F 58% 30.18 in 10.0 mi East 16.1 mph 21.9 mph N/A   Scattered Clouds
1:53 PM 81.0 °F 82.7 °F 64.9 °F 58% 30.17 in 10.0 mi East 13.8 mph - N/A   Clear
2:53 PM 79.0 °F - 63.0 °F 58% 30.15 in 10.0 mi East 16.1 mph - N/A   Scattered Clouds
3:53 PM 77.0 °F - 63.0 °F 62% 30.14 in 10.0 mi East 11.5 mph - N/A   Scattered Clouds
4:53 PM 78.1 °F - 62.1 °F 58% 30.13 in 10.0 mi East 11.5 mph - N/A   Clear
5:53 PM 77.0 °F - 62.1 °F 60% 30.13 in 10.0 mi East 10.4 mph - N/A   Clear
6:53 PM 75.0 °F - 60.1 °F 60% 30.13 in 10.0 mi East 10.4 mph - N/A   Clear
7:53 PM 72.0 °F - 61.0 °F 68% 30.13 in 10.0 mi East 8.1 mph - N/A   Clear
8:53 PM 70.0 °F - 62.1 °F 76% 30.14 in 10.0 mi East 5.8 mph - N/A   Clear
9:53 PM 70.0 °F - 62.1 °F 76% 30.14 in 10.0 mi East 4.6 mph - N/A   Clear
10:53 PM 70.0 °F - 64.0 °F 81% 30.14 in 10.0 mi East 5.8 mph - N/A   Clear
11:53 PM 71.1 °F - 63.0 °F 75% 30.14 in 10.0 mi East 5.8 mph - N/A   Clear